Location: Bartlow
(52.0833°N, 0.3167°E)
Time: 13:04:07
(UTC+00:00)

Cosmos 2360 Rocket - Pass Details

Date: 26 September 2023
Orbit: 833 x 845 km, 71.0° (Epoch: 10 December)

Event Time Altitude Azimuth Distance (km) Brightness Sun altitude
Rises 02:24:45 0° 330° (NNW) 3,412 5.5 -29.7°
Reaches altitude 10° 02:27:22 10° 338° (NNW) 2,476 4.8 -29.4°
Maximum altitude 02:32:43 40° 47° (NE) 1,225 3.4 -28.8°
Drops below altitude 10° 02:38:02 10° 117° (ESE) 2,467 4.8 -28.2°
Sets 02:40:38 0° 125° (SE) 3,399 5.5 -27.9°
